Regional Weather Roundup
Issued by NWS Newport/Morehead, NC

Current Version | Previous Version | Graphics & Text | Print | Product List | Glossary On
Versions: 1 2 3 4 5 6 7 8 9 10 11 12 13 14 15 16 17 18 19 20 21 22 23 24 25 26 27 28 29 30 31 32 33 34 35 36 37 38 39 40 41 42 43 44 45 46 47 48 49 50
000 ASUS42 KMHX 261212 RWRMHX WEATHER ROUNDUP FOR EASTERN NORTH CAROLINA NATIONAL WEATHER SERVICE NEWPORT/MOREHEAD CITY NC 700 AM EST THU FEB 26 2015 NOTE: "FAIR" INDICATES FEW OR NO CLOUDS BELOW 12,000 FEET WITH NO SIGNIFICANT WEATHER AND/OR OBSTRUCTIONS TO VISIBILITY NCZ015>017-031-032-045>047-102-103-261300- NORTH COAST CITY SKY/WX TMP DP RH WIND PRES REMARKS EDENTON MIX PCPN 33 32 94 N17G28 29.65R ELIZABETH CITY NOT AVBL KITTY HAWK RAIN 39 39 100 N16G23 29.55R MANTEO LGT RAIN 39 39 100 N23G33 29.54R $$ NCZ045>047-081-094-103-104-261300- CENTRAL COAST CITY SKY/WX TMP DP RH WIND PRES REMARKS FRISCO LGT RAIN 53 53 100 E8G18 29.44R FOG SWANQUARTER N/A 37 N/A N/A VRB10G23 29.50R $$ NCZ095-097-098-100-101-261300- SOUTHERN COAST CITY SKY/WX TMP DP RH WIND PRES REMARKS BEAUFORT LGT RAIN 39 32 76 N21G35 29.52R CEDAR ISLAND N/A 37 N/A N/A NW26 29.56R JACKSONVILLE MIX PCPN 35 33 92 N18G25 29.59R PINEY ISLAND N/A N/A N/A N/A MISG 29.52R WILMINGTON LGT RAIN 36 34 92 N14G26 29.60R FOG $$ NCZ011>013-027>030-043-044-078>080-089-090>093-098-261300- COASTAL PLAIN CITY SKY/WX TMP DP RH WIND PRES REMARKS AHOSKIE LGT SNOW 32 30 93 N14G24 29.71F CLINTON MIX PCPN 33 33 100 N12G17 29.68R ELIZABETHTOWN DRIZZLE 34 34 100 N10G17 29.67R GOLDSBORO MIX PCPN 33 33 99 N14G21 29.65R GREENVILLE LGT RAIN 34 32 93 N14G22 29.69S HAVELOCK CLOUDY 37 34 89 N21 29.57R FOG KENANSVILLE MIX PCPN 33 32 98 N14G22 29.65R KINSTON RAIN 34 32 93 N18G26 29.65R NEW BERN LGT RAIN 35 33 92 N16 29.59R RICHLANDS CLOUDY 34 30 86 N10G18 29.61R ROCKY MOUNT NOT AVBL WASHINGTON CLOUDY 33 32 96 N17G25 29.62F WHITEVILLE CLOUDY 35 33 93 N8G16 29.64R FOG $$ AMZ130-135-150-152-154-156-158-170-250-252-270-ANZ085-086-088-633-658-670-261300- MARINE OBSERVATIONS STATION/POSITION TIME TEMP WIND PRES WAVE SWELL AIR SEA DIR/SP/G HT/PER HT/PER (UTC) (F) (DEG/KT/KT) (MB) (FT/S) (FT/S) CHESAPEAKE LIGHT 1100 34 30/ 31/ 34 1005.1 64 E VA BEACH 1150 47 52 50/ 29/ 37 998.3 9/ 6 2/10 DUCK 1100 38 35 1000.1 2 E DUCK 1141 35 N/A 8/ 7 2/11 10 NE DUCK 1152 38 N/A 8/ 6 2/11 OREGON INLET 1100 43 37 60/ 12/ 15 998.5 HATTERAS CG 1100 51 44 100/ 12/ 18 996.7 CAPE LOOKOUT 1200 42 350/ 22/ 25 998.3 BEAUFORT LAB 1100 42 41 10/ 12/ 15 997.3 27 SE WRIGHTSVLE NOT AVBL 5 SE WRIGHTSVLE NOT AVBL 225 S CAPE HAT 1150 74 71 210/ 35/ 43 1002.7 11/ 7 2/11 41 SE CHARLESTON 1150 49 66 300/ 25/ 31 1002.8 11/ 9 8/ 9 $$

USA.gov is the U.S. government's official web portal to all federal, state and local government web resources and services.